| time (UTC) | temp F | wind direction | speed MPH | gust MPH | rain 1hr in | rain 24hr in | rain mn in | humidity % | barometer mb |
| 20260906122018 | 69 | 0 | 0.0 | 1.0 | 0.00 | 0.00 | 0.00 | 92 | 1018.1 |
| 20260906121540 | 69 | 0 | 0.0 | 1.0 | 0.00 | 0.00 | 0.00 | 92 | 1018.1 |
| 20260906121024 | 68 | 0 | 0.0 | 0.0 | 0.00 | 0.00 | 0.00 | 92 | 1018.0 |
| 20260906120520 | 68 | 0 | 0.0 | 0.0 | 0.00 | 0.00 | 0.00 | 92 | 1017.8 |
| 20260906120037 | 68 | 0 | 0.0 | 0.0 | 0.00 | 0.00 | 0.00 | 92 | 1017.7 |
| 20260906115520 | 68 | 0 | 0.0 | 0.0 | 0.00 | 0.00 | 0.00 | 92 | 1017.6 |
| 20260906115018 | 68 | 0 | 0.0 | 0.0 | 0.00 | 0.00 | 0.00 | 91 | 1017.5 |
| 20260906114544 | 68 | 0 | 0.0 | 0.0 | 0.00 | 0.00 | 0.00 | 91 | 1017.6 |
| 20260906114015 | 68 | 0 | 0.0 | 0.0 | 0.00 | 0.00 | 0.00 | 91 | 1017.5 |
| 20260906113518 | 68 | 0 | 0.0 | 0.0 | 0.00 | 0.00 | 0.00 | 91 | 1017.5 |
| 20260906113036 | 68 | 0 | 0.0 | 0.0 | 0.00 | 0.00 | 0.00 | 91 | 1017.4 |
| 20260906112517 | 69 | 0 | 0.0 | 0.0 | 0.00 | 0.00 | 0.00 | 91 | 1017.1 |
| 20260906112020 | 69 | 0 | 0.0 | 0.0 | 0.00 | 0.00 | 0.00 | 91 | 1017.1 |
| 20260906111544 | 69 | 0 | 0.0 | 0.0 | 0.00 | 0.00 | 0.00 | 91 | 1017.1 |
| 20260906111020 | 69 | 0 | 0.0 | 0.0 | 0.00 | 0.00 | 0.00 | 91 | 1017.1 |
| 20260906110518 | 69 | 0 | 0.0 | 0.0 | 0.00 | 0.00 | 0.00 | 91 | 1017.1 |
| 20260906110036 | 69 | 0 | 0.0 | 0.0 | 0.00 | 0.00 | 0.00 | 90 | 1017.1 |
| 20260906105520 | 69 | 0 | 0.0 | 0.0 | 0.00 | 0.00 | 0.00 | 90 | 1017.0 |
| 20260906105022 | 69 | 0 | 0.0 | 0.0 | 0.00 | 0.00 | 0.00 | 90 | 1016.7 |
| 20260906104537 | 69 | 0 | 0.0 | 0.0 | 0.00 | 0.00 | 0.00 | 90 | 1016.7 |
| 20260906104019 | 69 | 0 | 0.0 | 0.0 | 0.00 | 0.00 | 0.00 | 90 | 1016.6 |
| 20260906103516 | 69 | 0 | 0.0 | 1.0 | 0.00 | 0.00 | 0.00 | 90 | 1016.6 |
| 20260906103038 | 69 | 0 | 0.0 | 1.0 | 0.00 | 0.00 | 0.00 | 90 | 1016.7 |
| 20260906102519 | 69 | 0 | 0.0 | 1.0 | 0.00 | 0.00 | 0.00 | 90 | 1016.6 |
| 20260906102019 | 69 | 79 | 0.0 | 1.0 | 0.00 | 0.00 | 0.00 | 91 | 1016.6 |
| 20260906101537 | 69 | 0 | 0.0 | 1.0 | 0.00 | 0.00 | 0.00 | 91 | 1016.7 |
| 20260906101020 | 69 | 0 | 0.0 | 1.0 | 0.00 | 0.00 | 0.00 | 91 | 1016.7 |
| 20260906100520 | 70 | 79 | 0.0 | 1.0 | 0.00 | 0.00 | 0.00 | 90 | 1016.6 |
| 20260906100037 | 70 | 0 | 0.0 | 1.0 | 0.00 | 0.00 | 0.00 | 90 | 1016.5 |
| 20260906095520 | 70 | 0 | 0.0 | 1.0 | 0.00 | 0.00 | 0.00 | 90 | 1016.6 |
| 20260906095019 | 70 | 0 | 0.0 | 1.0 | 0.00 | 0.00 | 0.00 | 90 | 1016.5 |
| 20260906094543 | 70 | 0 | 0.0 | 1.0 | 0.00 | 0.00 | 0.00 | 90 | 1016.5 |
| 20260906094020 | 70 | 0 | 0.0 | 1.0 | 0.00 | 0.00 | 0.00 | 90 | 1016.5 |
| 20260906093519 | 70 | 0 | 0.0 | 1.0 | 0.00 | 0.00 | 0.00 | 90 | 1016.5 |
| 20260906093037 | 70 | 0 | 0.0 | 1.0 | 0.00 | 0.00 | 0.00 | 89 | 1016.5 |
| 20260906092520 | 71 | 0 | 0.0 | 1.0 | 0.00 | 0.00 | 0.00 | 89 | 1016.6 |
| 20260906092021 | 71 | 0 | 0.0 | 0.0 | 0.00 | 0.00 | 0.00 | 89 | 1016.6 |
| 20260906091537 | 71 | 0 | 0.0 | 1.0 | 0.00 | 0.00 | 0.00 | 89 | 1016.5 |
| 20260906091018 | 71 | 0 | 0.0 | 1.0 | 0.00 | 0.00 | 0.00 | 89 | 1016.3 |
| 20260906090519 | 71 | 0 | 0.0 | 1.0 | 0.00 | 0.00 | 0.00 | 89 | 1016.2 |
| 20260906090049 | 71 | 0 | 0.0 | 1.0 | 0.00 | 0.00 | 0.00 | 89 | 1016.3 |
| 20260906085517 | 71 | 0 | 0.0 | 1.0 | 0.00 | 0.00 | 0.00 | 89 | 1016.2 |
| 20260906085018 | 71 | 0 | 0.0 | 1.0 | 0.00 | 0.00 | 0.00 | 89 | 1016.2 |
| 20260906084536 | 71 | 0 | 0.0 | 1.0 | 0.00 | 0.00 | 0.00 | 89 | 1016.2 |
| 20260906084021 | 71 | 0 | 0.0 | 1.0 | 0.00 | 0.00 | 0.00 | 89 | 1016.1 |
| 20260906083518 | 71 | 0 | 0.0 | 1.0 | 0.00 | 0.00 | 0.00 | 89 | 1016.3 |
| 20260906083045 | 71 | 0 | 0.0 | 0.0 | 0.00 | 0.00 | 0.00 | 89 | 1016.2 |
| 20260906082520 | 71 | 0 | 0.0 | 0.0 | 0.00 | 0.00 | 0.00 | 88 | 1016.4 |
| 20260906082021 | 71 | 0 | 0.0 | 0.0 | 0.00 | 0.00 | 0.00 | 88 | 1016.3 |
| 20260906081538 | 72 | 0 | 0.0 | 0.0 | 0.00 | 0.00 | 0.00 | 88 | 1016.4 |
| 20260906081021 | 72 | 0 | 0.0 | 0.0 | 0.00 | 0.00 | 0.00 | 88 | 1016.4 |
| 20260906080521 | 72 | 0 | 0.0 | 1.0 | 0.00 | 0.00 | 0.00 | 88 | 1016.5 |
| 20260906080041 | 72 | 0 | 0.0 | 1.0 | 0.00 | 0.00 | 0.00 | 88 | 1016.6 |
| 20260906075520 | 72 | 78 | 0.0 | 1.0 | 0.00 | 0.00 | 0.00 | 88 | 1016.6 |
| 20260906075018 | 72 | 0 | 0.0 | 1.0 | 0.00 | 0.00 | 0.00 | 88 | 1016.6 |
| 20260906074535 | 72 | 72 | 0.0 | 1.0 | 0.00 | 0.00 | 0.00 | 88 | 1016.6 |
| 20260906074016 | 72 | 0 | 0.0 | 1.0 | 0.00 | 0.00 | 0.00 | 88 | 1016.5 |
| 20260906073517 | 72 | 0 | 0.0 | 3.0 | 0.00 | 0.00 | 0.00 | 88 | 1016.6 |
| 20260906073036 | 72 | 0 | 0.0 | 3.0 | 0.00 | 0.00 | 0.00 | 88 | 1016.6 |
| 20260906072518 | 72 | 0 | 0.0 | 3.0 | 0.00 | 0.00 | 0.00 | 88 | 1016.5 |
| 20260906072020 | 72 | 0 | 0.0 | 3.0 | 0.00 | 0.00 | 0.00 | 88 | 1016.5 |
| 20260906071535 | 72 | 0 | 0.0 | 3.0 | 0.00 | 0.00 | 0.00 | 88 | 1016.5 |
| 20260906071024 | 72 | 0 | 0.0 | 2.0 | 0.00 | 0.00 | 0.00 | 88 | 1016.5 |
| 20260906070523 | 72 | 96 | 0.0 | 1.0 | 0.00 | 0.00 | 0.00 | 88 | 1016.6 |
| 20260906070035 | 72 | 0 | 0.0 | 2.0 | 0.00 | 0.00 | 0.00 | 88 | 1016.5 |
| 20260906065520 | 72 | 0 | 0.0 | 2.0 | 0.00 | 0.00 | 0.00 | 88 | 1016.4 |
| 20260906065018 | 72 | 0 | 0.0 | 2.0 | 0.00 | 0.00 | 0.00 | 88 | 1016.4 |
| 20260906064534 | 72 | 0 | 0.0 | 2.0 | 0.00 | 0.00 | 0.00 | 88 | 1016.3 |
| 20260906064017 | 72 | 101 | 0.0 | 2.0 | 0.00 | 0.00 | 0.00 | 88 | 1016.4 |
| 20260906063516 | 72 | 0 | 0.0 | 2.0 | 0.00 | 0.00 | 0.00 | 88 | 1016.3 |
| 20260906063039 | 72 | 0 | 0.0 | 2.0 | 0.00 | 0.00 | 0.00 | 88 | 1016.4 |
| 20260906062525 | 72 | 0 | 0.0 | 1.0 | 0.00 | 0.00 | 0.00 | 88 | 1016.5 |
| 20260906062019 | 72 | 0 | 0.0 | 1.0 | 0.00 | 0.00 | 0.00 | 88 | 1016.5 |
| 20260906061546 | 72 | 94 | 0.0 | 1.0 | 0.00 | 0.00 | 0.00 | 88 | 1016.5 |
| 20260906061020 | 72 | 0 | 0.0 | 3.0 | 0.00 | 0.00 | 0.00 | 88 | 1016.6 |
| 20260906060520 | 72 | 77 | 0.0 | 3.0 | 0.00 | 0.00 | 0.00 | 87 | 1016.6 |
| 20260906060039 | 72 | 0 | 0.0 | 2.0 | 0.00 | 0.00 | 0.00 | 87 | 1016.6 |
| 20260906055520 | 72 | 0 | 0.0 | 3.0 | 0.00 | 0.00 | 0.00 | 87 | 1016.6 |
| 20260906055020 | 72 | 0 | 0.0 | 3.0 | 0.00 | 0.00 | 0.00 | 87 | 1016.5 |
| 20260906054541 | 72 | 0 | 0.0 | 2.0 | 0.00 | 0.00 | 0.00 | 87 | 1016.5 |
| 20260906054016 | 72 | 0 | 0.0 | 2.0 | 0.00 | 0.00 | 0.00 | 87 | 1016.5 |
| 20260906053519 | 72 | 0 | 0.0 | 1.0 | 0.00 | 0.00 | 0.00 | 87 | 1016.6 |
| 20260906053036 | 72 | 0 | 0.0 | 1.0 | 0.00 | 0.00 | 0.00 | 87 | 1016.4 |
| 20260906052520 | 72 | 0 | 0.0 | 1.0 | 0.00 | 0.00 | 0.00 | 87 | 1016.3 |
| 20260906052021 | 72 | 0 | 0.0 | 1.0 | 0.00 | 0.00 | 0.00 | 87 | 1016.2 |
| 20260906051539 | 72 | 0 | 0.0 | 3.0 | 0.00 | 0.00 | 0.00 | 87 | 1016.2 |
| 20260906051021 | 72 | 84 | 0.0 | 3.0 | 0.00 | 0.00 | 0.00 | 87 | 1016.2 |
| 20260906050525 | 72 | 0 | 0.0 | 3.0 | 0.00 | 0.00 | 0.00 | 87 | 1016.2 |
| 20260906050039 | 72 | 0 | 0.0 | 2.0 | 0.00 | 0.00 | 0.00 | 87 | 1016.1 |
| 20260906045521 | 72 | 0 | 0.0 | 2.0 | 0.00 | 0.00 | 0.00 | 87 | 1016.2 |
| 20260906045019 | 72 | 0 | 0.0 | 2.0 | 0.00 | 0.00 | 0.00 | 87 | 1016.1 |
| 20260906044535 | 72 | 0 | 0.0 | 2.0 | 0.00 | 0.00 | 0.00 | 87 | 1015.9 |
| 20260906044020 | 72 | 0 | 0.0 | 2.0 | 0.00 | 0.00 | 0.00 | 87 | 1015.8 |
| 20260906043521 | 72 | 0 | 0.0 | 2.0 | 0.00 | 0.00 | 0.00 | 87 | 1015.7 |
| 20260906043037 | 72 | 0 | 0.0 | 6.0 | 0.00 | 0.00 | 0.00 | 87 | 1015.7 |
| 20260906042521 | 72 | 0 | 0.0 | 6.0 | 0.00 | 0.00 | 0.00 | 87 | 1015.5 |
| 20260906042020 | 72 | 191 | 0.0 | 6.0 | 0.00 | 0.00 | 0.00 | 86 | 1015.3 |
| 20260906041539 | 72 | 0 | 0.0 | 4.0 | 0.00 | 0.00 | 0.00 | 86 | 1015.4 |
| 20260906041021 | 72 | 0 | 0.0 | 6.0 | 0.00 | 0.00 | 0.00 | 86 | 1015.4 |
| 20260906040521 | 72 | 85 | 0.0 | 6.0 | 0.00 | 0.00 | 0.00 | 86 | 1015.4 |
| 20260906040037 | 72 | 0 | 0.0 | 3.0 | 0.00 | 0.00 | 0.00 | 86 | 1015.4 |
| 20260906035518 | 72 | 101 | 0.0 | 8.0 | 0.00 | 0.00 | 0.00 | 86 | 1015.5 |
| 20260906035018 | 72 | 96 | 0.0 | 8.0 | 0.00 | 0.00 | 0.00 | 86 | 1015.5 |
| 20260906034553 | 72 | 77 | 1.0 | 4.0 | 0.00 | 0.00 | 0.00 | 86 | 1015.4 |
| 20260906034020 | 72 | 0 | 0.0 | 4.0 | 0.00 | 0.00 | 0.00 | 86 | 1015.4 |
| 20260906033517 | 73 | 0 | 0.0 | 4.0 | 0.00 | 0.00 | 0.00 | 86 | 1015.3 |
| 20260906033040 | 73 | 0 | 0.0 | 5.0 | 0.00 | 0.00 | 0.00 | 85 | 1015.3 |
| 20260906032520 | 73 | 0 | 0.0 | 5.0 | 0.00 | 0.00 | 0.00 | 85 | 1015.4 |
| 20260906032018 | 73 | 0 | 0.0 | 3.0 | 0.00 | 0.00 | 0.00 | 85 | 1015.5 |
| 20260906031537 | 73 | 64 | 0.0 | 4.0 | 0.00 | 0.00 | 0.00 | 85 | 1015.5 |
| 20260906031020 | 73 | 55 | 0.0 | 4.0 | 0.00 | 0.00 | 0.00 | 85 | 1015.5 |
| 20260906030521 | 73 | 94 | 0.0 | 3.0 | 0.00 | 0.00 | 0.00 | 85 | 1015.3 |
| 20260906030042 | 73 | 0 | 0.0 | 5.0 | 0.00 | 0.00 | 0.00 | 85 | 1015.3 |
| 20260906025522 | 73 | 0 | 0.0 | 5.0 | 0.00 | 0.00 | 0.00 | 85 | 1015.3 |
| 20260906025021 | 73 | 56 | 0.0 | 4.0 | 0.00 | 0.00 | 0.00 | 85 | 1015.4 |
| 20260906024539 | 72 | 65 | 0.0 | 5.0 | 0.00 | 0.00 | 0.00 | 85 | 1015.4 |
| 20260906024022 | 72 | 0 | 0.0 | 5.0 | 0.00 | 0.00 | 0.00 | 85 | 1015.4 |
| 20260906023520 | 72 | 88 | 1.0 | 5.0 | 0.00 | 0.00 | 0.00 | 85 | 1015.3 |
| 20260906023036 | 72 | 82 | 0.0 | 3.0 | 0.00 | 0.00 | 0.00 | 85 | 1015.3 |
| 20260906022518 | 72 | 73 | 0.0 | 3.0 | 0.00 | 0.00 | 0.00 | 85 | 1015.3 |
| 20260906022020 | 72 | 134 | 0.0 | 3.0 | 0.00 | 0.00 | 0.00 | 85 | 1015.2 |
| 20260906021541 | 72 | 72 | 0.0 | 4.0 | 0.00 | 0.00 | 0.00 | 85 | 1015.2 |
| 20260906021017 | 72 | 53 | 0.0 | 4.0 | 0.00 | 0.00 | 0.00 | 85 | 1015.3 |
| 20260906020518 | 72 | 44 | 0.0 | 4.0 | 0.00 | 0.00 | 0.00 | 86 | 1015.4 |
| 20260906020040 | 72 | 72 | 1.0 | 4.0 | 0.00 | 0.00 | 0.00 | 86 | 1015.5 |
| 20260906015520 | 72 | 96 | 0.0 | 4.0 | 0.00 | 0.00 | 0.00 | 86 | 1015.3 |
| 20260906015020 | 72 | 0 | 0.0 | 4.0 | 0.00 | 0.00 | 0.00 | 86 | 1015.5 |
| 20260906014538 | 72 | 0 | 0.0 | 4.0 | 0.00 | 0.00 | 0.00 | 86 | 1015.5 |
| 20260906014020 | 72 | 86 | 0.0 | 3.0 | 0.00 | 0.00 | 0.00 | 86 | 1015.5 |
| 20260906013519 | 72 | 0 | 0.0 | 3.0 | 0.00 | 0.00 | 0.00 | 86 | 1015.3 |
| 20260906013037 | 72 | 0 | 0.0 | 4.0 | 0.00 | 0.00 | 0.00 | 86 | 1015.5 |
| 20260906012519 | 72 | 0 | 0.0 | 4.0 | 0.00 | 0.00 | 0.00 | 86 | 1015.6 |
| 20260906012016 | 72 | 0 | 0.0 | 7.0 | 0.00 | 0.00 | 0.00 | 86 | 1015.5 |
| 20260906011538 | 72 | 0 | 1.0 | 7.0 | 0.00 | 0.00 | 0.00 | 86 | 1015.5 |
| 20260906011021 | 72 | 57 | 0.0 | 3.0 | 0.00 | 0.00 | 0.00 | 86 | 1015.4 |
| 20260906010519 | 72 | 0 | 0.0 | 3.0 | 0.00 | 0.00 | 0.00 | 86 | 1015.4 |
| 20260906010050 | 72 | 0 | 0.0 | 3.0 | 0.00 | 0.00 | 0.00 | 86 | 1015.2 |
| 20260906005520 | 72 | 72 | 0.0 | 6.0 | 0.00 | 0.00 | 0.00 | 86 | 1015.1 |
| 20260906005020 | 72 | 0 | 0.0 | 7.0 | 0.00 | 0.00 | 0.00 | 86 | 1015.0 |
| 20260906004541 | 72 | 97 | 1.0 | 7.0 | 0.00 | 0.00 | 0.00 | 85 | 1015.0 |
| 20260906004026 | 72 | 52 | 0.0 | 7.0 | 0.00 | 0.00 | 0.00 | 85 | 1014.9 |
| 20260906003520 | 72 | 74 | 1.0 | 6.0 | 0.00 | 0.00 | 0.00 | 85 | 1014.8 |
| 20260906003037 | 72 | 0 | 0.0 | 6.0 | 0.00 | 0.00 | 0.00 | 85 | 1015.0 |
| 20260906002516 | 72 | 89 | 0.0 | 6.0 | 0.00 | 0.00 | 0.00 | 85 | 1014.9 |
| 20260906002019 | 73 | 36 | 1.0 | 6.0 | 0.00 | 0.00 | 0.00 | 85 | 1014.8 |
| 20260906001551 | 73 | 72 | 0.0 | 5.0 | 0.00 | 0.00 | 0.00 | 85 | 1014.8 |
| 20260906001021 | 73 | 0 | 1.0 | 5.0 | 0.00 | 0.00 | 0.00 | 85 | 1014.8 |
| 20260906000520 | 73 | 65 | 0.0 | 7.0 | 0.00 | 0.00 | 0.00 | 85 | 1014.9 |
| 20260906000038 | 73 | 0 | 0.0 | 7.0 | 0.00 | 0.00 | 0.00 | 85 | 1014.9 |
| 20260905235520 | 73 | 0 | 0.0 | 5.0 | 0.00 | 0.00 | 0.00 | 84 | 1014.8 |
| 20260905235020 | 74 | 56 | 0.0 | 7.0 | 0.00 | 0.00 | 0.00 | 84 | 1014.8 |
| 20260905234538 | 74 | 78 | 1.0 | 7.0 | 0.00 | 0.00 | 0.00 | 83 | 1014.7 |
| 20260905234019 | 75 | 0 | 0.0 | 4.0 | 0.00 | 0.00 | 0.00 | 82 | 1014.9 |
| 20260905233520 | 75 | 200 | 0.0 | 4.0 | 0.00 | 0.00 | 0.00 | 83 | 1014.7 |
| 20260905233035 | 75 | 0 | 0.0 | 4.0 | 0.00 | 0.00 | 0.00 | 82 | 1014.7 |
| 20260905232525 | 76 | 0 | 0.0 | 7.0 | 0.00 | 0.00 | 0.00 | 82 | 1014.5 |
| 20260905232022 | 76 | 40 | 1.0 | 9.0 | 0.00 | 0.00 | 0.00 | 81 | 1014.5 |
| 20260905231537 | 76 | 103 | 1.0 | 9.0 | 0.00 | 0.00 | 0.00 | 81 | 1014.4 |
| 20260905231024 | 77 | 193 | 1.0 | 9.0 | 0.00 | 0.00 | 0.00 | 80 | 1014.3 |
| 20260905230521 | 77 | 0 | 0.0 | 3.0 | 0.00 | 0.00 | 0.00 | 80 | 1014.4 |
| 20260905230041 | 77 | 0 | 0.0 | 6.0 | 0.00 | 0.00 | 0.00 | 79 | 1014.3 |
| 20260905225525 | 78 | 0 | 0.0 | 9.0 | 0.00 | 0.00 | 0.00 | 79 | 1014.3 |
| 20260905225019 | 78 | 0 | 1.0 | 9.0 | 0.00 | 0.00 | 0.00 | 78 | 1014.3 |
| 20260905224534 | 79 | 0 | 0.0 | 6.0 | 0.00 | 0.00 | 0.00 | 78 | 1014.1 |
| 20260905224018 | 79 | 0 | 0.0 | 7.0 | 0.00 | 0.00 | 0.00 | 78 | 1014.1 |
| 20260905223519 | 79 | 0 | 1.0 | 7.0 | 0.00 | 0.00 | 0.00 | 77 | 1014.0 |
| 20260905223049 | 79 | 85 | 1.0 | 6.0 | 0.00 | 0.00 | 0.00 | 77 | 1013.9 |
| 20260905222523 | 79 | 41 | 0.0 | 5.0 | 0.00 | 0.00 | 0.00 | 77 | 1013.9 |
| 20260905222020 | 79 | 40 | 0.0 | 5.0 | 0.00 | 0.00 | 0.00 | 77 | 1014.1 |
| 20260905221542 | 79 | 70 | 0.0 | 7.0 | 0.00 | 0.00 | 0.00 | 76 | 1014.3 |
| 20260905221020 | 79 | 0 | 0.0 | 7.0 | 0.00 | 0.00 | 0.00 | 75 | 1014.4 |
| 20260905220519 | 79 | 0 | 1.0 | 7.0 | 0.00 | 0.00 | 0.00 | 75 | 1014.3 |
| 20260905220037 | 80 | 124 | 0.0 | 4.0 | 0.00 | 0.00 | 0.00 | 76 | 1014.2 |
| 20260905215516 | 79 | 0 | 0.0 | 8.0 | 0.00 | 0.00 | 0.00 | 76 | 1014.2 |
| 20260905215019 | 80 | 0 | 1.0 | 8.0 | 0.00 | 0.00 | 0.00 | 75 | 1014.1 |
| 20260905214543 | 80 | 89 | 0.0 | 4.0 | 0.00 | 0.00 | 0.00 | 76 | 1014.1 |
| 20260905214020 | 80 | 93 | 0.0 | 4.0 | 0.00 | 0.00 | 0.00 | 75 | 1014.1 |
| 20260905213518 | 80 | 89 | 1.0 | 3.0 | 0.00 | 0.00 | 0.00 | 76 | 1014.2 |
| 20260905213038 | 80 | 41 | 1.0 | 4.0 | 0.00 | 0.00 | 0.00 | 76 | 1014.2 |
| 20260905212524 | 80 | 0 | 1.0 | 4.0 | 0.00 | 0.00 | 0.00 | 76 | 1014.1 |
| 20260905212020 | 80 | 82 | 0.0 | 3.0 | 0.00 | 0.00 | 0.00 | 76 | 1014.1 |
| 20260905211536 | 80 | 0 | 0.0 | 4.0 | 0.00 | 0.00 | 0.00 | 77 | 1014.1 |
| 20260905211018 | 79 | 0 | 0.0 | 5.0 | 0.00 | 0.00 | 0.00 | 78 | 1014.2 |
| 20260905210520 | 79 | 77 | 1.0 | 5.0 | 0.00 | 0.00 | 0.00 | 78 | 1014.2 |
| 20260905210045 | 78 | 117 | 0.0 | 4.0 | 0.00 | 0.00 | 0.00 | 80 | 1014.2 |
| 20260905205520 | 78 | 0 | 0.0 | 4.0 | 0.00 | 0.00 | 0.00 | 79 | 1014.3 |
| 20260905205019 | 78 | 75 | 1.0 | 4.0 | 0.00 | 0.00 | 0.00 | 79 | 1014.3 |
| 20260905204536 | 79 | 82 | 0.0 | 4.0 | 0.00 | 0.00 | 0.00 | 78 | 1014.4 |
| 20260905204021 | 79 | 0 | 0.0 | 6.0 | 0.00 | 0.00 | 0.00 | 79 | 1014.2 |
| 20260905203524 | 79 | 73 | 1.0 | 6.0 | 0.00 | 0.00 | 0.00 | 78 | 1014.3 |
| 20260905203037 | 79 | 0 | 1.0 | 4.0 | 0.00 | 0.00 | 0.00 | 78 | 1014.3 |
| 20260905202520 | 79 | 0 | 0.0 | 4.0 | 0.00 | 0.00 | 0.00 | 78 | 1014.3 |
| 20260905202020 | 79 | 48 | 0.0 | 4.0 | 0.00 | 0.00 | 0.00 | 78 | 1014.3 |
| 20260905201536 | 79 | 0 | 1.0 | 6.0 | 0.00 | 0.00 | 0.00 | 78 | 1014.4 |
| 20260905201017 | 79 | 0 | 0.0 | 6.0 | 0.00 | 0.00 | 0.00 | 78 | 1014.4 |
| 20260905200520 | 79 | 68 | 0.0 | 3.0 | 0.00 | 0.00 | 0.00 | 78 | 1014.5 |
| 20260905200104 | 79 | 0 | 0.0 | 6.0 | 0.00 | 0.00 | 0.00 | 78 | 1014.5 |
| 20260905195519 | 79 | 0 | 0.0 | 6.0 | 0.00 | 0.00 | 0.00 | 78 | 1014.5 |
| 20260905195015 | 80 | 0 | 0.0 | 4.0 | 0.00 | 0.00 | 0.00 | 78 | 1014.3 |
| 20260905194538 | 80 | 95 | 0.0 | 4.0 | 0.00 | 0.00 | 0.00 | 77 | 1014.4 |
| 20260905194021 | 80 | 0 | 0.0 | 6.0 | 0.00 | 0.00 | 0.00 | 78 | 1014.3 |
| 20260905193521 | 80 | 0 | 0.0 | 6.0 | 0.00 | 0.00 | 0.00 | 77 | 1014.3 |
| 20260905193040 | 80 | 98 | 0.0 | 4.0 | 0.00 | 0.00 | 0.00 | 77 | 1014.5 |
| 20260905192520 | 80 | 44 | 0.0 | 7.0 | 0.00 | 0.00 | 0.00 | 77 | 1014.5 |
| 20260905192021 | 81 | 0 | 0.0 | 7.0 | 0.00 | 0.00 | 0.00 | 77 | 1014.4 |
| 20260905191535 | 81 | 53 | 1.0 | 6.0 | 0.00 | 0.00 | 0.00 | 76 | 1014.6 |
| 20260905191020 | 81 | 0 | 0.0 | 5.0 | 0.00 | 0.00 | 0.00 | 76 | 1014.5 |
| 20260905190518 | 81 | 0 | 0.0 | 6.0 | 0.00 | 0.00 | 0.00 | 76 | 1014.7 |
| 20260905190038 | 82 | 120 | 1.0 | 6.0 | 0.00 | 0.00 | 0.00 | 75 | 1014.7 |
| 20260905185516 | 82 | 0 | 0.0 | 4.0 | 0.00 | 0.00 | 0.00 | 75 | 1014.5 |
| 20260905185018 | 82 | 0 | 1.0 | 5.0 | 0.00 | 0.00 | 0.00 | 74 | 1014.6 |
| 20260905184549 | 82 | 0 | 0.0 | 5.0 | 0.00 | 0.00 | 0.00 | 74 | 1014.6 |
| 20260905184018 | 83 | 89 | 1.0 | 5.0 | 0.00 | 0.00 | 0.00 | 74 | 1014.6 |
| 20260905183521 | 83 | 44 | 1.0 | 5.0 | 0.00 | 0.00 | 0.00 | 74 | 1014.7 |
| 20260905183059 | 83 | 0 | 0.0 | 4.0 | 0.00 | 0.00 | 0.00 | 74 | 1014.8 |
| 20260905182521 | 83 | 0 | 0.0 | 4.0 | 0.00 | 0.00 | 0.00 | 74 | 1014.6 |
| 20260905182023 | 83 | 68 | 0.0 | 4.0 | 0.00 | 0.00 | 0.00 | 74 | 1014.7 |
| 20260905181544 | 83 | 40 | 0.0 | 6.0 | 0.00 | 0.00 | 0.00 | 73 | 1014.7 |
| 20260905181019 | 83 | 54 | 0.0 | 6.0 | 0.00 | 0.00 | 0.00 | 74 | 1014.7 |
| 20260905180519 | 83 | 0 | 0.0 | 4.0 | 0.00 | 0.00 | 0.00 | 73 | 1014.4 |
| 20260905180041 | 83 | 74 | 0.0 | 4.0 | 0.00 | 0.00 | 0.00 | 74 | 1014.5 |
| 20260905175521 | 83 | 0 | 0.0 | 4.0 | 0.00 | 0.00 | 0.00 | 74 | 1014.4 |
| 20260905175019 | 83 | 87 | 1.0 | 4.0 | 0.00 | 0.00 | 0.00 | 74 | 1014.3 |
| 20260905174537 | 83 | 83 | 0.0 | 3.0 | 0.00 | 0.00 | 0.00 | 74 | 1014.3 |
| 20260905174020 | 83 | 51 | 0.0 | 5.0 | 0.00 | 0.00 | 0.00 | 74 | 1014.4 |
| 20260905173520 | 83 | 91 | 1.0 | 5.0 | 0.00 | 0.00 | 0.00 | 74 | 1014.4 |
| 20260905173044 | 84 | 92 | 1.0 | 5.0 | 0.00 | 0.00 | 0.00 | 74 | 1014.2 |
| 20260905172520 | 84 | 0 | 0.0 | 2.0 | 0.00 | 0.00 | 0.00 | 74 | 1014.3 |
| 20260905172021 | 84 | 0 | 0.0 | 2.0 | 0.00 | 0.00 | 0.00 | 76 | 1014.3 |
| 20260905171537 | 83 | 88 | 0.0 | 5.0 | 0.00 | 0.00 | 0.00 | 75 | 1014.3 |
| 20260905171021 | 84 | 0 | 0.0 | 5.0 | 0.00 | 0.00 | 0.00 | 74 | 1014.4 |
| 20260905170522 | 84 | 37 | 1.0 | 5.0 | 0.00 | 0.00 | 0.00 | 74 | 1014.4 |
| 20260905170036 | 84 | 82 | 0.0 | 6.0 | 0.00 | 0.00 | 0.00 | 74 | 1014.4 |
| 20260905165516 | 84 | 82 | 0.0 | 7.0 | 0.00 | 0.00 | 0.00 | 74 | 1014.4 |
| 20260905165020 | 83 | 76 | 1.0 | 7.0 | 0.00 | 0.00 | 0.00 | 75 | 1014.5 |
| 20260905164538 | 83 | 63 | 2.0 | 6.0 | 0.00 | 0.00 | 0.00 | 74 | 1014.5 |
| 20260905164025 | 83 | 65 | 1.0 | 5.0 | 0.00 | 0.00 | 0.00 | 75 | 1014.6 |
| 20260905163524 | 84 | 0 | 0.0 | 4.0 | 0.00 | 0.00 | 0.00 | 75 | 1014.5 |
| 20260905163038 | 83 | 0 | 0.0 | 4.0 | 0.00 | 0.00 | 0.00 | 75 | 1014.4 |
| 20260905162521 | 83 | 93 | 0.0 | 3.0 | 0.00 | 0.00 | 0.00 | 76 | 1014.3 |
| 20260905162020 | 83 | 0 | 1.0 | 4.0 | 0.00 | 0.00 | 0.00 | 74 | 1014.5 |
| 20260905161538 | 83 | 9 | 0.0 | 4.0 | 0.00 | 0.00 | 0.00 | 76 | 1014.5 |
| 20260905161023 | 83 | 79 | 0.0 | 5.0 | 0.00 | 0.00 | 0.00 | 76 | 1014.5 |
| 20260905160519 | 82 | 79 | 1.0 | 5.0 | 0.00 | 0.00 | 0.00 | 77 | 1014.5 |
| 20260905160033 | 82 | 0 | 0.0 | 5.0 | 0.00 | 0.00 | 0.00 | 77 | 1014.5 |
| 20260905155519 | 82 | 0 | 1.0 | 4.0 | 0.00 | 0.00 | 0.00 | 78 | 1014.4 |
| 20260905155020 | 81 | 0 | 0.0 | 4.0 | 0.00 | 0.00 | 0.00 | 79 | 1014.4 |
| 20260905154537 | 81 | 73 | 0.0 | 4.0 | 0.00 | 0.00 | 0.00 | 79 | 1014.4 |
| 20260905154021 | 81 | 85 | 0.0 | 2.0 | 0.00 | 0.00 | 0.00 | 79 | 1014.4 |
| 20260905153521 | 80 | 72 | 0.0 | 4.0 | 0.00 | 0.00 | 0.00 | 79 | 1014.4 |
| 20260905153038 | 80 | 69 | 1.0 | 4.0 | 0.00 | 0.00 | 0.00 | 79 | 1014.3 |
| 20260905152523 | 80 | 65 | 0.0 | 4.0 | 0.00 | 0.00 | 0.00 | 80 | 1014.2 |
| 20260905152020 | 80 | 66 | 0.0 | 4.0 | 0.00 | 0.00 | 0.00 | 81 | 1014.1 |
| 20260905151539 | 80 | 70 | 1.0 | 6.0 | 0.00 | 0.00 | 0.00 | 81 | 1014.1 |
| 20260905151021 | 80 | 48 | 0.0 | 6.0 | 0.00 | 0.00 | 0.00 | 81 | 1014.0 |
| 20260905150519 | 80 | 60 | 1.0 | 6.0 | 0.00 | 0.00 | 0.00 | 81 | 1013.9 |
| 20260905150038 | 80 | 0 | 0.0 | 2.0 | 0.00 | 0.00 | 0.00 | 82 | 1013.9 |
| 20260905145518 | 79 | 0 | 0.0 | 5.0 | 0.00 | 0.00 | 0.00 | 82 | 1013.9 |
| 20260905145020 | 79 | 67 | 1.0 | 5.0 | 0.00 | 0.00 | 0.00 | 83 | 1013.9 |
| 20260905144543 | 79 | 75 | 0.0 | 7.0 | 0.00 | 0.00 | 0.00 | 84 | 1013.9 |
| 20260905144021 | 78 | 0 | 1.0 | 7.0 | 0.00 | 0.00 | 0.00 | 84 | 1013.8 |
| 20260905143517 | 78 | 0 | 0.0 | 4.0 | 0.00 | 0.00 | 0.00 | 85 | 1013.8 |
| 20260905143038 | 78 | 49 | 0.0 | 4.0 | 0.00 | 0.00 | 0.00 | 86 | 1013.8 |
| 20260905142525 | 77 | 109 | 0.0 | 4.0 | 0.00 | 0.00 | 0.00 | 86 | 1013.7 |
| 20260905142019 | 77 | 80 | 1.0 | 4.0 | 0.00 | 0.00 | 0.00 | 87 | 1013.6 |
| 20260905141537 | 77 | 78 | 0.0 | 5.0 | 0.00 | 0.00 | 0.00 | 88 | 1013.6 |
| 20260905141025 | 76 | 0 | 1.0 | 5.0 | 0.00 | 0.00 | 0.00 | 88 | 1013.5 |
| 20260905140519 | 76 | 37 | 1.0 | 5.0 | 0.00 | 0.00 | 0.00 | 89 | 1013.4 |
| 20260905140035 | 76 | 113 | 0.0 | 3.0 | 0.00 | 0.00 | 0.00 | 90 | 1013.4 |
| 20260905135518 | 75 | 0 | 1.0 | 5.0 | 0.00 | 0.00 | 0.00 | 90 | 1013.5 |
| 20260905135021 | 75 | 88 | 1.0 | 5.0 | 0.00 | 0.00 | 0.00 | 90 | 1013.5 |
| 20260905134539 | 75 | 54 | 1.0 | 4.0 | 0.00 | 0.00 | 0.00 | 90 | 1013.4 |
| 20260905134020 | 75 | 98 | 0.0 | 5.0 | 0.00 | 0.00 | 0.00 | 90 | 1013.6 |
| 20260905133521 | 75 | 0 | 0.0 | 5.0 | 0.00 | 0.00 | 0.00 | 91 | 1013.7 |
| 20260905133037 | 75 | 58 | 1.0 | 5.0 | 0.00 | 0.00 | 0.00 | 91 | 1013.8 |
| 20260905132517 | 74 | 88 | 1.0 | 5.0 | 0.00 | 0.00 | 0.00 | 91 | 1013.9 |
| 20260905132020 | 74 | 359 | 0.0 | 5.0 | 0.00 | 0.00 | 0.00 | 91 | 1013.9 |
| 20260905131550 | 75 | 94 | 0.0 | 4.0 | 0.00 | 0.00 | 0.00 | 91 | 1013.6 |
| 20260905131025 | 75 | 0 | 0.0 | 4.0 | 0.00 | 0.00 | 0.00 | 91 | 1013.5 |
| 20260905130519 | 75 | 81 | 1.0 | 3.0 | 0.00 | 0.00 | 0.00 | 91 | 1013.3 |
| 20260905130035 | 75 | 0 | 0.0 | 4.0 | 0.00 | 0.00 | 0.00 | 91 | 1013.2 |
| 20260905125522 | 75 | 0 | 0.0 | 4.0 | 0.00 | 0.00 | 0.00 | 90 | 1013.1 |
| 20260905125023 | 75 | 0 | 0.0 | 4.0 | 0.00 | 0.00 | 0.00 | 91 | 1013.1 |
| 20260905124539 | 75 | 0 | 0.0 | 4.0 | 0.00 | 0.00 | 0.00 | 91 | 1013.0 |
| 20260905124020 | 75 | 114 | 0.0 | 3.0 | 0.00 | 0.00 | 0.00 | 91 | 1012.8 |
| 20260905123525 | 75 | 49 | 0.0 | 3.0 | 0.00 | 0.00 | 0.00 | 90 | 1012.7 |
| 20260905123100 | 75 | 0 | 0.0 | 3.0 | 0.00 | 0.00 | 0.00 | 91 | 1012.7 |
| 20260905122516 | 75 | 75 | 0.0 | 3.0 | 0.00 | 0.00 | 0.00 | 91 | 1012.8 |